Wind_Speed
120 121 115 114 117 123 122 115 112 108 105 102 100 93 86 88 89 84 78 72 71 71 71 70 70 70 67 66 66 66 71 76 77 79 79 74 74 72 70 65 61 57 52 49
120 114 112 113 119 117 117 114 114 111 109 109 102 93 87 86 82 83 83 77 71 65 66 69 70 67 66 66 70 71 78 79 76 74 71 71 68 70 66 60 53 47 45 47
118 114 115 115 116 115 113 111 111 112 113 107 101 97 89 87 84 83 77 72 69 66 69 69 68 68 68 70 73 77 79 74 70 70 67 68 67 61 56 49 44 39 39 47
115 115 115 115 112 113 111 108 108 106 108 105 104 95 94 86 82 83 80 75 73 74 78 76 75 71 73 76 77 77 70 68 69 68 65 61 54 51 45 41 39 37 42 44
117 116 115 117 112 111 107 108 104 103 101 100 95 89 72 86 79 78 83 79 83 83 78 74 76 75 78 76 69 66 66 66 64 61 59 55 50 41 37 36 35 37 41 44
116 124 120 114 115 112 108 106 105 104 101 91 85 84 68 75 73 75 74 69 68 69 70 71 73 70 67 61 60 61 63 60 55 54 50 44 38 36 34 32 34 38 40 41
109 115 121 120 115 111 107 104 102 100 96 84 86 77 64 73 67 66 59 56 58 58 58 57 58 57 56 57 56 55 53 51 43 40 37 33 31 31 31 33 35 38 38 33
98 109 113 122 120 115 107 103 99 96 90 86 85 66 66 66 65 62 57 57 57 56 54 54 53 53 49 47 46 47 46 36 33 30 29 27 29 30 33 33 35 35 29 29
89 97 104 111 120 119 113 106 98 95 89 83 74 65 59 60 59 56 54 53 51 49 46 47 42 41 39 40 41 40 31 27 26 24 23 26 29 32 32 34 32 26 23 28
84 86 94 101 109 113 116 111 106 95 87 75 66 58 49 53 45 43 40 37 35 36 38 33 31 33 35 37 31 22 19 15 17 21 24 29 28 30 33 31 25 18 22 26
71 81 86 93 96 102 107 112 111 103 91 76 65 53 48 49 47 37 31 30 30 33 28 24 27 25 29 24 18 15 12 18 22 22 28 27 27 30 29 25 20 15 20 25
56 75 83 85 87 92 98 102 104 102 93 81 66 57 56 56 50 39 33 33 32 28 25 25 21 24 23 22 18 16 14 21 22 25 29 26 27 28 23 21 14 15 20 25
47 61 73 79 80 81 83 89 92 93 92 84 73 62 62 64 52 45 40 35 35 30 26 23 23 26 22 21 17 17 16 23 26 29 26 27 26 24 21 17 11 16 21 25
44 53 64 72 75 74 70 74 77 82 85 84 74 67 70 69 57 47 39 38 35 31 26 22 18 16 20 19 17 19 20 25 25 26 24 27 26 22 20 12 13 17 23 22
37 43 52 61 63 65 69 66 64 64 72 77 75 66 76 68 62 50 44 40 36 34 28 21 15 15 19 20 18 16 20 23 26 24 25 26 24 20 17 11 11 18 23 14
30 37 43 49 53 58 66 65 62 58 60 65 71 71 73 70 64 53 46 41 35 31 31 24 18 20 20 19 14 15 19 24 26 22 24 25 22 18 12 10 10 15 13 10
26 31 37 38 41 48 56 60 57 56 58 60 68 72 71 65 61 56 50 44 40 33 31 25 24 19 23 19 13 14 20 25 21 23 25 24 19 15 8 10 11 9 6 8
22 28 32 34 38 47 56 61 61 59 61 65 67 71 67 61 56 55 51 46 42 36 33 29 26 19 22 18 14 16 19 23 22 23 25 18 12 7 6 8 9 8 3 4
20 24 27 31 38 44 51 59 63 64 63 65 65 66 63 62 56 54 50 44 37 37 31 27 23 22 21 16 10 16 18 20 21 22 22 12 10 4 6 6 7 7 5 2
17 20 21 24 29 37 45 58 65 69 67 66 66 60 60 59 56 49 44 41 35 33 25 21 24 21 19 10 11 16 18 18 20 21 18 10 9 7 7 7 6 5 2 3
19 23 26 28 32 36 43 57 67 66 68 66 57 56 55 53 54 50 43 39 34 35 22 22 25 22 19 10 10 15 19 15 19 21 14 7 8 9 8 10 7 5 3 6
24 28 31 33 34 37 45 57 64 67 66 59 54 51 61 63 59 51 47 40 35 33 34 28 24 22 19 14 9 16 13 14 19 19 11 5 7 9 10 11 6 2 4 2
27 30 34 37 39 41 48 57 65 65 59 55 54 64 69 63 66 52 43 40 42 42 40 27 27 24 18 11 6 10 9 12 16 15 6 3 6 7 10 11 5 4 6 4
29 33 34 35 37 46 52 61 64 55 57 52 64 79 78 70 55 55 47 37 50 39 33 31 26 25 18 3 6 6 7 11 14 13 5 4 5 2 9 11 6 3 5 1
29 32 35 40 45 49 57 63 66 64 56 58 71 76 70 68 63 59 45 41 40 36 33 29 30 23 21 6 2 3 5 8 11 13 8 4 5 4 2 8 7 4 3 3
32 34 38 45 52 58 65 70 68 67 59 66 76 80 73 68 65 55 55 48 40 35 38 34 32 27 18 12 7 3 4 5 7 9 8 2 4 5 2 4 5 6 6 6
Wind_Direction
240 242 245 247 246 245 247 248 246 248 249 252 252 251 250 253 257 263 267 267 269 269 271 271 275 279 282 282 285 287 294 297 295 294 293 294 292 293 294 298 299 299 298 298
241 242 240 242 245 246 246 247 246 247 250 251 252 252 252 256 260 263 265 269 270 269 271 274 275 279 282 284 286 288 294 295 294 292 292 290 290 291 296 297 297 297 297 297
241 240 240 241 241 243 245 246 245 247 249 251 252 251 254 256 260 266 266 265 264 266 271 275 275 278 281 284 287 288 290 291 289 289 289 289 290 295 296 292 292 293 291 292
240 241 243 243 242 242 243 245 246 246 247 248 252 251 254 255 260 264 262 259 264 267 272 275 276 277 280 283 284 286 287 287 286 286 286 288 296 294 290 288 291 293 294 299
241 240 240 242 243 242 241 242 244 247 248 249 251 254 251 254 256 252 251 259 264 267 272 272 273 273 279 280 282 283 284 284 284 284 287 293 291 288 286 288 292 298 300 298
237 237 239 238 240 241 241 242 243 245 247 250 252 254 251 252 252 252 256 261 263 264 265 267 268 273 275 278 279 279 280 281 283 286 291 286 285 286 287 290 299 300 299 303
233 235 237 237 238 240 241 242 243 244 246 249 249 250 251 254 253 258 261 262 260 261 262 265 267 268 273 274 275 276 275 282 285 286 283 282 286 288 294 303 304 303 303 303
232 233 232 234 236 238 239 241 242 244 245 245 247 251 254 251 254 256 261 261 259 259 260 262 266 269 269 269 269 272 279 281 280 282 280 290 288 296 303 305 304 303 303 305
231 231 232 232 233 234 236 238 240 241 241 241 245 244 245 251 252 257 254 255 257 260 259 259 261 262 262 264 268 276 276 273 276 284 291 291 299 303 304 304 306 303 297 308
232 231 231 232 232 232 234 234 237 238 239 240 240 239 241 248 248 247 249 251 251 248 248 253 246 255 262 266 270 269 275 291 288 285 295 304 301 301 303 304 300 291 302 316
226 230 230 230 230 231 231 232 233 234 235 235 233 232 230 238 237 237 237 235 232 235 238 238 247 256 262 257 251 256 293 297 291 289 303 299 299 304 305 300 295 292 308 319
225 227 228 229 229 229 229 230 232 232 231 231 229 227 228 230 232 232 222 221 224 221 227 232 247 253 248 236 247 250 310 305 296 297 303 298 304 310 301 297 287 293 305 314
220 225 227 229 229 228 226 228 228 229 230 228 225 221 224 226 233 230 220 220 225 226 230 237 234 243 241 238 256 259 298 308 305 301 300 304 313 309 301 294 270 290 306 314
220 217 223 226 223 224 225 226 225 225 226 224 219 213 218 220 227 225 220 219 220 228 234 227 232 237 237 244 263 271 297 306 304 305 306 313 314 307 304 281 276 298 309 307
221 219 219 225 225 218 219 218 219 217 221 221 215 208 218 216 222 222 218 218 221 220 224 220 236 240 242 241 258 266 298 304 304 307 315 316 315 304 303 271 285 304 306 279
219 220 219 221 222 214 211 212 209 205 211 214 211 206 216 215 218 216 217 214 218 219 222 225 233 237 229 235 259 279 300 303 311 314 318 315 307 295 286 254 286 305 302 269
213 212 213 214 213 213 208 206 200 197 200 202 201 209 211 209 211 211 212 212 211 217 224 227 230 237 229 237 257 285 297 315 314 322 321 316 299 285 252 243 275 285 306 257
203 208 206 202 198 202 200 197 191 189 192 194 194 206 204 202 204 205 205 206 207 213 220 227 229 230 231 239 265 289 306 315 319 326 324 312 309 301 224 236 254 251 303 275
192 195 198 194 195 196 193 187 186 185 188 187 191 199 198 197 195 197 199 202 204 220 221 224 215 226 226 237 298 312 316 313 325 326 323 315 331 285 226 237 233 241 244 336
179 175 178 183 189 192 187 183 182 181 182 184 193 193 193 192 193 192 189 184 193 211 212 210 220 222 219 237 273 309 314 314 327 321 316 317 328 266 234 227 239 232 202 161
157 156 162 167 177 183 181 179 181 179 177 179 185 188 185 180 182 170 171 180 191 205 202 231 225 224 212 228 289 296 312 320 326 318 310 307 314 274 230 212 204 234 263 195
155 159 161 163 171 174 175 175 174 176 175 174 178 172 162 168 168 172 175 177 191 206 220 227 225 219 212 223 284 298 305 324 327 319 297 310 320 274 229 207 207 254 319 260
158 162 161 164 164 162 164 166 172 172 166 175 167 160 159 160 162 161 166 188 205 219 226 225 213 208 209 227 288 282 309 329 330 324 293 353 360 276 230 217 222 273 315 281
166 163 164 160 154 158 159 161 164 166 171 164 158 157 161 161 161 162 159 188 204 212 210 204 203 198 201 194 257 275 309 333 335 335 321 29 28 6 223 216 221 280 360 93
170 168 160 155 152 156 156 157 161 167 165 162 162 165 165 162 163 164 164 196 193 189 197 205 192 190 200 178 225 277 299 331 334 340 337 3 42 25 225 227 217 214 70 130
170 164 159 156 153 152 153 157 161 158 166 173 167 171 172 168 167 170 171 183 187 191 198 197 197 192 184 191 215 247 273 316 317 340 346 360 77 75 101 196 219 213 155 120
Height
10573 10581 10607 10618 10625 10634 10647 10661 10667 10676 10679 10673 10692 10720 10725 10724 10730 10739 10744 10750 10754 10754 10752 10750 10752 10752 10753 10752 10749 10748 10746 10743 10737 10731 10725 10720 10712 10704 10697 10691 10687 10681 10678 10672
10547 10572 10582 10589 10594 10610 10623 10635 10645 10655 10656 10662 10677 10702 10716 10718 10725 10727 10733 10738 10741 10743 10738 10740 10741 10741 10740 10740 10739 10736 10732 10728 10723 10717 10713 10707 10701 10694 10689 10683 10678 10674 10667 10662
10528 10549 10552 10563 10572 10585 10599 10610 10625 10635 10637 10650 10661 10684 10700 10707 10714 10716 10723 10725 10728 10729 10726 10728 10731 10730 10728 10728 10728 10725 10721 10716 10710 10705 10701 10694 10688 10684 10680 10673 10670 10667 10660 10654
10507 10522 10531 10537 10554 10564 10580 10589 10600 10614 10621 10639 10642 10674 10681 10693 10705 10708 10712 10710 10715 10714 10713 10717 10721 10719 10718 10717 10715 10712 10708 10704 10698 10691 10688 10684 10680 10675 10671 10668 10663 10659 10654 10649
10493 10496 10503 10513 10530 10539 10563 10568 10582 10590 10603 10617 10639 10651 10696 10669 10692 10692 10687 10703 10702 10704 10706 10708 10708 10706 10706 10705 10703 10698 10695 10690 10685 10681 10678 10676 10672 10668 10665 10661 10656 10650 10646 10642
10454 10459 10471 10495 10502 10517 10534 10549 10565 10574 10584 10606 10630 10637 10675 10656 10669 10669 10681 10695 10697 10694 10697 10696 10694 10695 10694 10694 10692 10688 10683 10677 10675 10672 10670 10666 10663 10659 10657 10654 10648 10644 10640 10633
10422 10431 10457 10467 10482 10496 10514 10532 10545 10559 10575 10609 10606 10629 10657 10636 10655 10662 10675 10679 10679 10682 10684 10684 10682 10684 10684 10683 10681 10677 10672 10669 10666 10664 10661 10657 10655 10651 10647 10643 10640 10636 10630 10624
10393 10408 10426 10442 10459 10477 10495 10512 10530 10545 10567 10585 10590 10633 10637 10617 10640 10654 10662 10663 10665 10668 10672 10670 10673 10673 10674 10673 10671 10667 10665 10662 10660 10659 10654 10652 10648 10644 10639 10636 10634 10628 10623 10618
10372 10388 10404 10421 10432 10453 10474 10491 10515 10526 10547 10567 10594 10616 10616 10610 10628 10643 10645 10648 10653 10658 10660 10662 10665 10664 10666 10666 10662 10661 10658 10655 10655 10652 10649 10647 10642 10636 10633 10631 10626 10622 10619 10615
10361 10374 10386 10397 10412 10435 10453 10473 10488 10511 10533 10563 10588 10604 10612 10597 10617 10630 10634 10639 10644 10648 10649 10654 10656 10659 10659 10657 10656 10654 10652 10651 10650 10648 10645 10640 10636 10632 10629 10624 10621 10618 10615 10612
10346 10355 10366 10374 10396 10414 10431 10451 10470 10494 10522 10552 10576 10597 10598 10587 10601 10623 10626 10629 10636 10638 10644 10648 10649 10651 10650 10650 10649 10649 10649 10648 10646 10644 10640 10635 10632 10627 10622 10619 10616 10615 10612 10609
10331 10334 10346 10361 10376 10392 10411 10432 10453 10481 10513 10540 10565 10584 10584 10572 10595 10613 10617 10622 10627 10633 10638 10641 10643 10645 10644 10644 10645 10645 10644 10642 10640 10639 10634 10630 10626 10621 10618 10615 10613 10611 10610 10607
10316 10323 10333 10344 10362 10378 10399 10418 10441 10470 10492 10525 10550 10572 10569 10558 10588 10602 10609 10616 10622 10627 10632 10634 10637 10638 10638 10639 10639 10640 10640 10638 10636 10633 10629 10625 10620 10616 10614 10611 10611 10609 10608 10604
10299 10308 10317 10326 10343 10367 10391 10407 10429 10451 10478 10505 10539 10552 10544 10547 10577 10593 10605 10611 10617 10622 10625 10628 10631 10631 10633 10634 10634 10636 10636 10633 10631 10627 10623 10618 10615 10612 10610 10608 10608 10606 10604 10601
10292 10300 10310 10318 10334 10359 10375 10396 10418 10443 10464 10489 10517 10539 10520 10545 10567 10585 10597 10606 10611 10616 10620 10623 10625 10627 10628 10629 10630 10631 10631 10629 10627 10623 10618 10613 10610 10608 10606 10605 10605 10604 10601 10599
10287 10295 10302 10310 10324 10343 10360 10381 10402 10430 10452 10475 10500 10514 10512 10537 10557 10577 10587 10597 10606 10611 10615 10618 10620 10623 10623 10626 10626 10627 10626 10624 10621 10618 10614 10610 10607 10605 10602 10603 10604 10603 10600 10598
10281 10288 10296 10306 10320 10336 10356 10374 10400 10423 10441 10461 10480 10480 10501 10532 10550 10565 10577 10587 10598 10605 10609 10612 10616 10619 10619 10623 10623 10623 10622 10620 10617 10614 10610 10606 10603 10600 10599 10601 10603 10602 10599 10597
10277 10284 10293 10303 10314 10324 10338 10361 10388 10411 10427 10444 10463 10467 10500 10525 10540 10554 10565 10579 10590 10596 10600 10607 10612 10613 10617 10619 10620 10619 10618 10616 10613 10610 10607 10603 10600 10597 10597 10601 10602 10602 10600 10597
10279 10286 10293 10302 10309 10320 10334 10355 10378 10399 10420 10438 10453 10466 10495 10514 10531 10544 10559 10571 10582 10591 10596 10605 10608 10609 10613 10616 10616 10615 10615 10613 10611 10608 10605 10601 10598 10597 10598 10601 10601 10602 10600 10598
10283 10289 10296 10305 10315 10324 10337 10354 10372 10388 10410 10429 10443 10468 10488 10509 10528 10542 10555 10566 10575 10584 10594 10601 10603 10606 10609 10613 10614 10613 10612 10610 10608 10607 10604 10600 10597 10597 10599 10600 10602 10602 10602 10600
10284 10289 10295 10304 10312 10323 10338 10353 10367 10388 10408 10426 10445 10464 10484 10507 10523 10537 10549 10561 10571 10580 10590 10597 10599 10603 10606 10610 10610 10610 10610 10608 10607 10605 10602 10598 10596 10596 10598 10599 10601 10602 10602 10600
10286 10291 10298 10306 10315 10325 10337 10352 10374 10389 10408 10429 10444 10464 10484 10501 10521 10533 10546 10557 10567 10578 10587 10592 10596 10600 10603 10607 10607 10608 10607 10607 10606 10603 10599 10597 10595 10595 10598 10599 10600 10601 10601 10600
10292 10297 10302 10308 10316 10329 10342 10358 10376 10394 10417 10431 10448 10465 10483 10499 10516 10530 10544 10557 10565 10573 10582 10588 10592 10597 10601 10604 10605 10606 10605 10605 10604 10601 10598 10596 10594 10594 10596 10599 10600 10600 10601 10599
10297 10300 10307 10315 10324 10333 10344 10360 10384 10407 10420 10439 10454 10468 10481 10498 10510 10524 10535 10552 10560 10569 10578 10583 10589 10594 10599 10601 10603 10604 10604 10604 10603 10601 10597 10595 10594 10594 10596 10599 10600 10600 10600 10599
10305 10309 10314 10322 10330 10340 10352 10371 10386 10404 10424 10436 10457 10472 10484 10495 10510 10521 10535 10550 10557 10568 10577 10582 10586 10591 10596 10599 10602 10602 10603 10603 10602 10600 10596 10595 10594 10594 10596 10598 10600 10601 10601 10600
10311 10315 10321 10328 10337 10347 10362 10378 10394 10407 10422 10429 10449 10469 10484 10495 10508 10518 10530 10546 10555 10563 10571 10577 10582 10587 10591 10596 10599 10600 10601 10601 10602 10600 10598 10595 10595 10595 10596 10598 10600 10602 10602 10603